Regional Weather Roundup
Issued by NWS

Home | Current Version | Previous Version | Text Only | Print | Product List | Glossary On
Versions: 1 2 3 4 5 6 7 8 9 10 11 12 13 14 15 16 17 18 19 20 21 22 23 24 25 26 27 28 29 30 31 32 33 34 35 36 37 38 39 40 41 42 43 44 45 46 47 48 49 50
000
ASUS43 KDTX 280201
RWRMI
MICHIGAN HOURLY REGIONAL WEATHER ROUNDUP
NATIONAL WEATHER SERVICE DETROIT/PONTIAC MI
1000 PM EDT MON JUL 27 2015

NOTE: "FAIR" INDICATES FEW OR NO CLOUDS BELOW 12,000 FEET WITH NO
SIGNIFICANT WEATHER AND/OR OBSTRUCTION TO VISIBILITY.

MIZ047>049-052>055-059>063-066>070-074>076-081>083-280300-
SOUTHEAST LOWER MICHIGAN

CITY           SKY/WX    TMP DP  RH WIND       PRES   REMARKS
ADRIAN         PTCLDY    74  63  68 CALM      30.03R
ALMA           CLEAR     71  67  89 CALM      30.03S
ANN ARBOR      PTCLDY    71  66  84 S3        30.03R
BAD AXE        CLEAR     71  66  84 CALM      30.03R
CARO           CLEAR     70  68  91 CALM      30.02R
DETROIT CITY   PTCLDY    81  62  52 CALM      30.02R
DETROIT        PTCLDY    78  64  61 S5        30.02R
FLINT          CLEAR     75  64  68 CALM      30.03R
GROSSE ILE     PTCLDY    75  68  78 CALM      30.01R
HILLSDALE      PTCLDY    71  67  87 CALM      30.04R
HOWELL         PTCLDY    72  62  70 CALM      30.03R

CITY           SKY/WX    TMP DP  RH WIND       PRES   REMARKS
JACKSON        PTCLDY    74  64  71 CALM      30.03R
LAMBERTVILLE   PTCLDY    73  66  80 CALM      30.03R
LANSING        PTCLDY    75  64  68 CALM      30.03R
LAPEER         FAIR      68  64  89 CALM      30.03R
MASON          PTCLDY    71  65  81 CALM      30.03S HAZE
MONROE         PTCLDY    70  63  77 CALM      30.01S
MT. CLEMENS    PTCLDY    74  63  66 N3        30.01R
PONTIAC        PTCLDY    76  58  53 CALM      30.03R
PORT HOPE        N/A     72  67  84 S3        30.00R
PORT HURON     CLEAR     64  61  88 CALM      30.03R
TRI CITIES     CLEAR     79  65  62 SW5       30.02R
MIDLAND        FAIR      72  65  77 CALM      30.01R
TROY           PTCLDY    81  60  47 SE3       30.04R
SAGINAW HB     CLEAR     75  64  69 S3        30.02R
$$
MIZ043>046-050>051-056>058-064>065-071>073-077>080-280300-
SOUTHWEST LOWER MICHIGAN

CITY           SKY/WX    TMP DP  RH WIND       PRES   REMARKS
BATTLE CREEK   PTCLDY    78  63  59 CALM      30.03R
BENTON HARBOR  PTCLDY    72  66  81 CALM      30.01R
BIG RAPIDS     CLEAR     77  62  59 NW5       30.04R
COLDWATER      CLEAR     72  60  67 CALM      30.03R
FREMONT        FAIR      74  63  69 CALM      30.03R
HOLLAND        CLEAR     74  67  78 CALM      30.02R
GRAND RAPIDS   PTCLDY    76  67  73 NE3       30.02R
IONIA          FAIR      74  64  72 CALM      30.02R
KALAMAZOO      PTCLDY    75  64  68 CALM      30.02R
LUDINGTON      CLEAR     71  64  77 CALM      30.04R
MARSHALL       PTCLDY    71  64  80 CALM      30.02R
MOUNT PLEASANT CLEAR     73  63  70 CALM      30.02R
MUSKEGON       PTCLDY    78  65  63 N7        30.02R
SOUTH HAVEN    CLEAR     72  67  85 CALM      30.01R
$$
MIZ016>042-280300-
NORTHERN LOWER MICHIGAN

CITY           SKY/WX    TMP DP  RH WIND       PRES   REMARKS
ALPENA         CLEAR     70  63  78 CALM      30.02R
BEAVER ISLAND  CLEAR     70  59  68 W3        30.03R
BELLAIRE       CLEAR     69  63  81 CALM      30.03R
CADILLAC       CLEAR     74  62  67 CALM      30.06R
CHARLEVOIX     CLEAR     70  61  72 CALM      30.06R
FRANKFORT      CLEAR     68  57  66 CALM      30.03R
GAYLORD        CLEAR     77  60  55 NW3       30.05R
GRAYLING       CLEAR     72  62  71 CALM      30.06R
HARBOR SPRINGS CLEAR     69  67  95 CALM      30.03R
HOUGHTON LAKE  CLEAR     78  62  57 NW3       30.04R
MANISTEE       CLEAR     70  59  68 CALM      30.03S
OSCODA         CLEAR     72  67  84 CALM      30.01S
PELLSTON       CLEAR     75  61  61 NW5       30.03R
ROGERS CITY    CLEAR     70  60  70 CALM      30.03R
TRAVERSE CITY  PTCLDY    75  66  73 CALM      30.02R
$$
MIZ007>008-015-280300-
EASTERN UPPER MICHIGAN

CITY           SKY/WX    TMP DP  RH WIND       PRES   REMARKS
KINROSS        CLEAR     75  64  69 CALM      30.02S
MACKINAC ISLAN CLEAR     74  64  70 W7        30.02S
$$
MIZ004>006-011>014-085-280300-
CENTRAL UPPER MICHIGAN

CITY           SKY/WX    TMP DP  RH WIND       PRES   REMARKS
ESCANABA       CLEAR     75  64  69 S5        30.00R
MENOMINEE      CLEAR     73  61  64 CALM      30.00S
SAWYER-GWINN   CLEAR     79  61  53 S6        30.03R
$$
MIZ001>003-009>011-084-280300-
WESTERN UPPER MICHIGAN

CITY           SKY/WX    TMP DP  RH WIND       PRES   REMARKS
IRON MOUNTAIN  CLEAR     74  63  68 CALM      30.01R
HOUGHTON       CLEAR     72  66  81 E6        29.99R
COPPER HARBOR    N/A     75  67  76 VRB3      29.97S
IRONWOOD       CLEAR     79  59  50 S3        29.96
$$

ABBREVIATIONS USED IN REMARKS
   TC - TEMPERATURE IN CELSIUS
  WCI - WIND CHILL INDEX
   HX - HEAT INDEX
  VSB - VISIBILITY



USA.gov is the U.S. government's official web portal to all federal, state and local government web resources and services.